INTELSAT 18 (IS-18) (37834 NORAD) Tracking and Keplerian Element Data

This shows tracking and keplerian element data for the satellite.

Feedback or suggestion? Click here.




ElementValue
Catalog37834
NameINTELSAT 18 (IS-18)
Epoch Orbit4885
Epoch Day35.24514307
Epoch Year2025
RAAN91.0528
Inclination0.0238
Eccentricity0.0001672
Argument of Perigee230.5746
Mean Anonmoly81.2807
Mean Motion1.0027071
Decay Rate5.7E-07
L11 37834U 11056A 25035.24514307 .00000057 00000+0 00000+0 0 9999
L22 37834 0.0238 91.0528 0001672 230.5746 81.2807 1.00270710 48857



Live tracking and technical data element details for INTELSAT 18 (IS-18) (NORAD 37834). INTELSAT 18 (IS-18) can be tracked NOW for your location showing map with azimuth and elevation plus other details from your city location.







IsCatalogInMostPopularTable: catalog: 37834, numindb: 562
Update: records affected: 1



GetName: 37834 INTELSAT 18 (IS-18)

Hit Count: updated at: Thu, 15 May 2025 10:19:32 GMT